This demonstration page uses our WeatherBlox Daily Observations layout. Learn more.

Left ArrowRight Arrow

Hourly Observations for August 24, 2019

Temp ( °F °C ) Dew Point ( °F °C ) Humidity (%) Winds ( mph kmh ) Pressure ( in mb ) Visibility ( mi km ) Precip ( " mm )
12:56 am 00:56 Clear 70 21 61 16 73 73 ESE 10 17 30.11 1020 10 16 0.00 0.00
1:56 am 01:56 Clear 68 20 61 16 78 78 ESE 8 13 30.11 1020 10 16 0.00 0.00
2:56 am 02:56 Mostly Cloudy 68 20 61 16 78 78 SE 8 13 30.12 1020 10 16 0.00 0.00
3:56 am 03:56 Partly Cloudy 68 20 61 16 78 78 SE 9 15 30.12 1020 10 16 0.00 0.00
4:56 am 04:56 Clear 68 20 59 15 73 73 SE 8 13 30.12 1020 10 16 0.00 0.00
5:56 am 05:56 Mostly Clear 66 19 59 15 78 78 SE 9 15 30.11 1020 10 16 0.00 0.00
6:56 am 06:56 Partly Cloudy 66 19 59 15 78 78 SE 7 11 30.12 1020 10 16 0.00 0.00
7:56 am 07:56 Mostly Cloudy 66 19 57 14 73 73 SE 12 19 30.13 1020 7 11 0.00 0.00
8:56 am 08:56 Mostly Cloudy 68 20 57 14 69 69 SE 12 19 30.13 1020 7 11 0.00 0.00
9:56 am 09:56 Mostly Cloudy 68 20 59 15 73 73 ESE 13 20 30.12 1020 7 11 0.00 0.00
10:56 am 10:56 Mostly Cloudy 72 22 61 16 69 69 SE 10 17 30.11 1020 7 11 0.00 0.00
11:56 am 11:56 Mostly Cloudy 75 24 61 16 61 61 ESE 16 26 30.09 1019 7 11 0.00 0.00
12:56 pm 12:56 Mostly Cloudy 75 24 61 16 61 61 ESE 16 26 30.07 1018 7 11 0.00 0.00
1:12 pm 13:12 Mostly Cloudy 75 24 61 16 61 61 SE 23 37 30.06 1018 7 11 0.00 0.00
1:56 pm 13:56 Mostly Cloudy 75 24 61 16 61 61 ESE 15 24 30.06 1018 7 11 0.00 0.00
2:56 pm 14:56 Mostly Cloudy 75 24 61 16 61 61 ESE 13 20 30.06 1018 7 11 0.00 0.00
3:56 pm 15:56 Mostly Sunny 75 24 61 16 61 61 SE 13 20 30.07 1018 10 16 0.00 0.00
4:56 pm 16:56 Mostly Cloudy 75 24 61 16 61 61 ESE 12 19 30.05 1018 10 16 0.00 0.00
5:56 pm 17:56 Mostly Cloudy with Light Rain 73 23 63 17 69 69 ESE 16 26 30.03 1017 6 10 0.00 0.00
6:27 pm 18:27 Mostly Cloudy 72 22 63 17 73 73 ESE 12 19 30.01 1016 10 16 0.00 0.00
6:56 pm 18:56 Mostly Cloudy 73 23 61 16 65 65 SE 9 15 30.04 1017 10 16 0.00 0.00
7:56 pm 19:56 Cloudy 72 22 61 16 69 69 SE 8 13 30.03 1017 10 16 0.00 0.00
8:56 pm 20:56 Mostly Cloudy 72 22 61 16 69 69 SE 12 19 30.04 1017 10 16 0.00 0.00
9:56 pm 21:56 Mostly Cloudy 72 22 61 16 69 69 SE 10 17 30.05 1018 10 16 0.00 0.00
10:56 pm 22:56 Cloudy 70 21 61 16 73 73 SE 9 15 30.03 1017 10 16 0.00 0.00
11:56 pm 23:56 Mostly Cloudy 70 21 61 16 73 73 SE 8 13 30.01 1016 10 16 0.00 0.00

Powered by AerisWeather